Home   Weather   Township of Fairfield   Past weeks
Flag for USA

Past Weather in Township of Fairfield, Iowa, USA — Yesterday and Last 2 Weeks

Now
42 °F

Overcast.


Feels Like: 35 °F
Forecast: 40 / 19 °F
Wind: 13 mph from Southwest

Location: Cedar Rapids Municipal Airport

Current Time: Dec 12, 2019 at 4:34:57 pm

Latest Report: Dec 12, 2019 at 3:52 pm


Visibility: 10 mi

Pressure: 29.99 "Hg

Humidity: 68%

Dew Point: 32 °F

Location of Township of FairfieldLocation

Past Weather in Township of Fairfield — Graph

°F

Township of Fairfield Temperature Yesterday

Maximum temperature yesterday: 18 °F (at 12:52 pm)
Minimum temperature yesterday: 11 °F (at 5:52 pm)
Average temperature yesterday: 15 °F

High & Low Weather Summary for the Past Weeks

 TemperatureHumidityPressure
High53 °F (Dec 5, 2:52 pm)100% (Nov 29, 4:28 am)30.55 "Hg (Nov 29, 4:28 am)
Low3 °F (Dec 10, 10:52 pm)55% (Dec 5, 2:52 pm)29.30 "Hg (Dec 1, 1:52 am)
Average30 °F87%30.00 "Hg
* Reported Nov 27 2:52 pm — Dec 12 2:52 pm, Township of Fairfield. Weather by CustomWeather, © 2019

Note: Actual official high and low records may vary slightly from our data, if they occured in-between our weather recording intervals... More about our weather records

Township of Fairfield Weather History for the Previous 24 Hours

Scroll right to see more
 ConditionsComfort  
Time TempWeatherWind HumidityBarometerVisibility
2:52 pm
Thu, Dec 12
43 °FScattered clouds.16 mph65%29.98 "Hg10 mi
1:52 pm41 °FOvercast.13 mph65%29.99 "Hg10 mi
12:52 pm39 °FOvercast.13 mph67%30.01 "Hg10 mi
11:52 am38 °FOvercast.14 mph70%30.04 "Hg10 mi
10:52 am37 °FOvercast.17 mph67%30.06 "Hg10 mi
9:52 am37 °FOvercast.20 mph67%30.09 "Hg10 mi
8:52 am32 °FOvercast.12 mph79%30.09 "Hg10 mi
7:52 am28 °FIce fog.9 mph85%30.12 "Hg6 mi
6:52 am25 °FIce fog.10 mph88%30.15 "Hg6 mi
5:52 am24 °FIce fog.12 mph88%30.16 "Hg5 mi
4:52 am21 °FIce fog.13 mph92%30.20 "Hg5 mi
3:52 am21 °FIce fog.17 mph88%30.24 "Hg5 mi
2:52 am18 °FIce fog.13 mph88%30.27 "Hg5 mi
1:52 am17 °FIce fog.15 mph88%30.29 "Hg5 mi
12:52 am16 °FIce fog.15 mph87%30.32 "Hg5 mi
11:52 pm
Wed, Dec 11
14 °FIce fog.12 mph87%30.36 "Hg6 mi
10:52 pm13 °FClear.12 mph84%30.38 "Hg8 mi
9:52 pm13 °FClear.13 mph81%30.40 "Hg9 mi
8:52 pm13 °FClear.12 mph81%30.42 "Hg10 mi
7:52 pm11 °FClear.8 mph81%30.45 "Hg10 mi
6:52 pm12 °FClear.9 mph77%30.46 "Hg10 mi
5:52 pm11 °FClear.7 mph77%30.48 "Hg10 mi
4:52 pm15 °FClear.3 mph70%30.50 "Hg10 mi
Weather by CustomWeather, © 2019

See weather overview

Advertising